Flag for U.S.A. Weather past 2 weeks in Milwaukee, Wisconsin, U.S.A.

Now
59 °F

Partly sunny.


Feels Like: 58 °F
Forecast: 49 / 62 °F
Wind: 7 mph from Southwest

Location: Milwaukee / Timmerman

Current Time: Oct 24, 2014 at 6:38:24 PM

Latest Report: Oct 24, 2014 at 5:45 PM


Visibility: 10 mi

Pressure: 29.94 "Hg

Humidity: 63%

Dew point: 46 °F

Location of MilwaukeeLocation

Historic Weather in Milwaukee — Graph

°F

Milwaukee temperature yesterday

Maximum temperature yesterday: 57 °F (at 1:45 PM)
Minimum temperature yesterday: 30 °F (at 3:55 AM)
Average temperature yesterday: 42 °F

Past Weeks' High & Low Weather Summary

 TemperatureHumidityPressure
High64 °F (Oct 13, 10:55 PM)100% (Oct 11, 6:35 AM)30.38 "Hg (Oct 11, 6:35 AM)
Low30 °F (Oct 22, 6:45 AM)26% (Oct 9, 4:45 PM)29.50 "Hg (Oct 14, 1:55 AM)
Average46 °F82%29.98 "Hg
* Reported Oct 9 4:45 PM — Oct 24 4:45 PM, Milwaukee, Weather by CustomWeather, © 2014

Note: Actual official high and low records may vary slightly from our data, if they occured in-between our weather recording intervals... More about our weather records

Advertising

Milwaukee weather history for previous 24 hours

 ConditionsComfort  
Time TempWeatherWind HumidityBarometerVisibility
4:45 PM
Oct 24
61 °FSunny.6 mph59%29.95 "Hg10 mi
3:45 PM63 °FSunny.6 mph59%29.95 "Hg10 mi
2:45 PM61 °FSunny.7 mph63%29.97 "Hg10 mi
1:45 PM57 °FSunny.No wind72%29.99 "Hg10 mi
12:45 PM55 °FScattered clouds.6 mph77%30.02 "Hg7 mi
11:45 AM52 °FLow clouds.No wind82%30.05 "Hg10 mi
10:45 AM50 °FLow clouds.3 mph88%30.05 "Hg7 mi
9:45 AM48 °FFog.7 mph94%30.06 "Hg2 mi
8:45 AM48 °FFog.8 mph94%30.06 "Hg3 mi
7:45 AM48 °FFog.6 mph94%30.06 "Hg4 mi
6:45 AM50 °FDrizzle. Fog.7 mph88%30.05 "Hg3 mi
6:35 AM50 °FFog.5 mph88%30.05 "Hg3 mi
6:15 AM50 °FFog.6 mph88%30.05 "Hg3 mi
5:55 AM50 °FFog.3 mph88%30.04 "Hg3 mi
5:35 AM50 °FFog.3 mph88%30.04 "Hg3 mi
5:15 AM50 °FFog.5 mph88%30.04 "Hg3 mi
4:55 AM50 °FFog.3 mph88%30.05 "Hg2 mi
4:35 AM50 °FFog.3 mph88%30.05 "Hg2 mi
4:15 AM50 °FFog.3 mph88%30.04 "Hg2 mi
3:55 AM50 °FFog.5 mph88%30.04 "Hg3 mi
3:35 AM50 °FFog.3 mph88%30.04 "Hg4 mi
3:15 AM50 °FFog.5 mph88%30.04 "Hg4 mi
2:55 AM50 °FFog.6 mph88%30.04 "Hg4 mi
2:15 AM50 °FFog.7 mph88%30.04 "Hg5 mi
1:55 AM50 °FFog.9 mph88%30.03 "Hg5 mi
1:15 AM50 °FLow clouds.5 mph82%30.03 "Hg7 mi
12:55 AM50 °FOvercast.5 mph88%30.03 "Hg7 mi
12:35 AM50 °FOvercast.5 mph82%30.03 "Hg7 mi
12:15 AM50 °FOvercast.5 mph82%30.03 "Hg10 mi
11:55 PM
Oct 23
50 °FOvercast.6 mph82%30.04 "Hg10 mi
11:15 PM50 °FMostly cloudy.6 mph82%30.05 "Hg10 mi
10:55 PM50 °FMostly cloudy.6 mph82%30.05 "Hg10 mi
10:15 PM50 °FMostly cloudy.5 mph82%30.06 "Hg10 mi
9:55 PM50 °FMostly cloudy.7 mph88%30.06 "Hg10 mi
9:35 PM50 °FOvercast.6 mph82%30.06 "Hg10 mi
9:15 PM50 °FOvercast.6 mph88%30.07 "Hg10 mi
8:45 PM52 °FOvercast.No wind82%30.07 "Hg10 mi
7:45 PM52 °FOvercast.No wind88%30.06 "Hg10 mi
Weather by CustomWeather, © 2014

See weather overviewHow to use our weather pages